Showing default

CUBEBUG 2, 39440

Orbit data source: Space-Track

CUBEBUG 2, 39440 is a payload satellite owned by MinCyT (AR) in SSO that was launched on Thu, 21 Nov 2013 UTC via a DNEPR launch vehicle from the Orenburg, Russia (OREN). Payload-class satellites include a variety of spacecraft equipped with specific instruments for various scientific and technological missions. These include communications satellites like Starlink; space stations such as the ISS; scientific satellites like the Hubble; Earth observation satellites from companies like Planet Labs, Umbra, and HawkEye 360; GPS; miniature CubeSats for education and research; and military/defense satellites.

Loading next visibility...
Identifier
39440, 2013-066AA
Orbit
SSO
Country
Flag of UnknownUnknown / ARGN
Related business
Manufacturer
INVAP
Mission
Operational Amateur Technology
Bus & Motor
CUBESAT 2U, Unknown motor
Mass
3 kg wet, 3 kg dry
Launch date (UTC)
2013-11-21 (12 years ago)
Launch vehicle
DNEPR
Launch site
Orenburg, Russia (OREN)
Object type
Payload
Rocket body
Debris
Shape & HBR
Box, 1.0 m
Radar Cross Section
0.040 m², Medium (>0.1 m² and < 1m²)

Expand to show TLE details & history
Last TLE update: 12 hours ago

TLE from 12 hours ago
0 CUBEBUG 2
1 39440U 13066AA  25301.39094575  .00007035  00000-0  68700-3 0  9998
2 39440  97.8634 245.1645 0062485  75.4104 285.4033 14.91229764642419
Epoch: 2025-10-28T09:22Z
TLE epoch observation values (Epoch: 2025-10-28T09:22:57.712Z)
Latitude
-0.00001°
Longitude
67.44492°
Altitude
585.818 km
Speed
7.573 km/s
True Right ascension
16h 20m 39s
True Declination
0° 00' 00"
Sunlit
Object was in daylight at epoch
Visualization orbit readout
Latitude
Unknown
Longitude
Unknown
Altitude
Unknown
Speed
Unknown
Apparent Right ascension
Unknown
Apparent Declination
Unknown
Sunlit
N/A
Visualization observer readout
Local Sidereal Time
17:04:02
Azimuth
Unknown
Elevation
Unknown
Doppler factor
Unknown
Orbital elements
Apogee altitude
634.671 km
Perigee altitude
547.576 km
Semi-major axis
6,969.261 km
Eccentricity
0.00625
Inclination
97.8634°
RAAN
245.1645°
Arg. of periapsis
75.4104°
True anomaly
284.71158°
Mean anomaly
285.4033°
Eccentric anomaly
285.05758°
Mean motion
3.73047 °/min
Orbital period
96.5 mins
BSTAR
0.000687
Loading maneuver chart data...
Computing Atmospheric mass density...
Loading historical data...
Loading historical data...
Loading historical data...
Loading historical data...
Loading historical data...
Loading historical data...
Loading historical data...

Documentation

Showing up to 5 results
|